Location: Newark
(20.0000°S, 47.0000°E)
Time: 19:31:52
(UTC+00:00)

Envisat - Pass Details

Date: 22 June 2019
Orbit: 764 x 766 km, 98.1° (Epoch: 19 July)

Event Time Altitude Azimuth Distance (km) Brightness Sun altitude
Exits shadow 14:48:45 - 126° (SE) 2,562 5.1 -6.7°
Reaches altitude 10° 14:49:49 10° 116° (ESE) 2,311 4.8 -6.9°
Maximum altitude 14:52:34 15° 83° (E) 2,002 4.6 -7.5°
Drops below altitude 10° 14:55:17 10° 50° (NE) 2,297 5.2 -8.1°
Sets 14:58:38 0° 27° (NNE) 3,214 6.2 -8.8°
